TimeCST,TemperatureF,Dew PointF,Humidity,Sea Level PressureIn,VisibilityMPH,Wind Direction,Wind SpeedMPH,Gust SpeedMPH,PrecipitationIn,Events,Conditions,WindDirDegrees,DateUTC
12:15 AM,48.2,42.8,82,30.16,10.0,Calm,Calm,-,N/A,,Clear,0,2012-11-20 06:15:00
12:35 AM,46.4,41.0,81,30.16,10.0,Calm,Calm,-,N/A,,Clear,0,2012-11-20 06:35:00
12:55 AM,46.4,42.8,87,30.15,10.0,Calm,Calm,-,N/A,,Clear,0,2012-11-20 06:55:00
1:15 AM,48.2,42.8,82,30.15,10.0,Calm,Calm,-,N/A,,Clear,0,2012-11-20 07:15:00
1:35 AM,48.2,42.8,82,30.15,10.0,Calm,Calm,-,N/A,,Clear,0,2012-11-20 07:35:00
1:55 AM,48.2,42.8,82,30.16,10.0,Calm,Calm,-,N/A,,Clear,0,2012-11-20 07:55:00
2:15 AM,48.2,42.8,82,30.16,10.0,Calm,Calm,-,N/A,,Clear,0,2012-11-20 08:15:00
2:35 AM,48.2,42.8,82,30.16,10.0,Calm,Calm,-,N/A,,Clear,0,2012-11-20 08:35:00
6:51 AM,51.8,44.6,76,30.17,10.0,West,8.1,-,N/A,,Clear,260,2012-11-20 12:51:00
7:50 AM,53.6,44.6,72,30.18,10.0,WSW,6.9,-,N/A,,Clear,250,2012-11-20 13:50:00
8:53 AM,55.4,46.4,72,30.20,10.0,West,5.8,-,N/A,,Clear,270,2012-11-20 14:53:00
9:55 AM,57.2,48.2,72,30.20,10.0,WNW,9.2,-,N/A,,Clear,290,2012-11-20 15:55:00
10:52 AM,59.0,46.4,63,30.20,10.0,West,6.9,-,N/A,,Clear,280,2012-11-20 16:52:00
11:51 AM,62.6,44.6,52,30.18,10.0,West,5.8,-,N/A,,Clear,270,2012-11-20 17:51:00
12:52 PM,62.6,44.6,52,30.16,10.0,WNW,5.8,-,N/A,,Clear,290,2012-11-20 18:52:00
1:59 PM,66.2,42.8,43,30.14,10.0,WNW,6.9,-,N/A,,Clear,300,2012-11-20 19:59:00
2:45 PM,66.2,39.2,37,30.14,10.0,NW,9.2,-,N/A,,Clear,310,2012-11-20 20:45:00
3:46 PM,64.4,39.2,40,30.15,10.0,NNW,11.5,-,N/A,,Clear,330,2012-11-20 21:46:00
4:51 PM,62.6,39.2,42,30.15,10.0,WNW,11.5,-,N/A,,Clear,300,2012-11-20 22:51:00
5:47 PM,57.2,39.2,51,30.18,10.0,WNW,6.9,-,N/A,,Clear,300,2012-11-20 23:47:00
6:45 PM,57.2,39.2,51,30.20,10.0,WNW,17.3,-,N/A,,Clear,300,2012-11-21 00:45:00
7:55 PM,53.6,41.0,62,30.21,10.0,WNW,5.8,-,N/A,,Clear,300,2012-11-21 01:55:00
8:15 PM,51.8,41.0,67,30.21,10.0,NW,4.6,-,N/A,,Clear,320,2012-11-21 02:15:00
8:35 PM,50.0,41.0,71,30.22,10.0,NNW,4.6,-,N/A,,Clear,330,2012-11-21 02:35:00
8:50 PM,50.0,41.0,71,30.22,10.0,NW,5.8,-,N/A,,Clear,320,2012-11-21 02:50:00
8:55 PM,50.0,41.0,71,30.22,10.0,NW,3.5,-,N/A,,Clear,310,2012-11-21 02:55:00
9:15 PM,51.8,41.0,67,30.22,10.0,NW,5.8,-,N/A,,Clear,320,2012-11-21 03:15:00
9:35 PM,51.8,41.0,67,30.23,10.0,NW,5.8,-,N/A,,Clear,320,2012-11-21 03:35:00
9:55 PM,51.8,41.0,67,30.22,10.0,NW,5.8,-,N/A,,Clear,320,2012-11-21 03:55:00
10:15 PM,50.0,41.0,71,30.23,10.0,NNW,4.6,-,N/A,,Clear,340,2012-11-21 04:15:00
10:35 PM,50.0,41.0,71,30.23,10.0,Calm,Calm,-,N/A,,Clear,0,2012-11-21 04:35:00
10:55 PM,48.2,41.0,76,30.23,10.0,North,4.6,-,N/A,,Clear,10,2012-11-21 04:55:00
11:15 PM,50.0,41.0,71,30.23,10.0,NNW,3.5,-,N/A,,Clear,340,2012-11-21 05:15:00
11:35 PM,48.2,41.0,76,30.23,10.0,Calm,Calm,-,N/A,,Clear,0,2012-11-21 05:35:00
11:55 PM,46.4,41.0,81,30.23,10.0,Calm,Calm,-,N/A,,Clear,0,2012-11-21 05:55:00